Location: Deuil
(48.9767°N, 2.3272°E)
Time: 03:03:11
(UTC+00:00)

Cosmos 2360 Rocket - Pass Details

Date: 22 May 2022
Orbit: 832 x 846 km, 71.0° (Epoch: 03 July)

Event Time Altitude Azimuth Distance (km) Brightness Sun altitude
Exits shadow 00:42:22 22° 244° (WSW) 1,756 3.5 -19.6°
Maximum altitude 00:45:43 46° 306° (NW) 1,119 2.9 -19.5°
Drops below altitude 10° 00:51:09 10° 20° (NNE) 2,468 5.9 -19.2°
Sets 00:53:43 0° 26° (NNE) 3,408 6.9 -19.1°
